Location: La Brionne
(46.1728°N, 1.7849°E)
Time: 07:06:30
(UTC+00:00)

Cosmos 1758 - Pass Details

Date: 16 June 2021
Orbit: 539 x 561 km, 82.5° (Epoch: 02 August)

Event Time Altitude Azimuth Distance (km) Brightness Sun altitude
Rises 20:38:04 0° 352° (N) 2,718 7.8 -7.6°
Reaches altitude 10° 20:40:15 10° 354° (N) 1,818 6.8 -7.8°
Maximum altitude 20:44:15 75° 79° (E) 566 3.3 -8.3°
Drops below altitude 10° 20:48:11 10° 166° (SSE) 1,796 5.4 -8.8°
Enters shadow 20:48:30 - 167° (SSE) 1,920 5.6 -8.8°
